STARLINK-30214, 57411

Orbit data source: Space-Track

STARLINK-30214, 57411 is a payload satellite owned by SpaceX/Seattle (US) in LEO that was launched on Thu, 20 Jul 2023 UTC via an FALCON 9 launch vehicle from the Air Force Western Test Range (AFWTR). Payload-class satellites include a variety of spacecraft equipped with specific instruments for various scientific and technological missions. These include communications satellites like Starlink; space stations such as the ISS; scientific satellites like the Hubble; Earth observation satellites from companies like Planet Labs, Umbra, and HawkEye 360; GPS; miniature CubeSats for education and research; and military/defense satellites.

Loading next visibility...
Identifier
57411, 2023-102H
Orbit
LEO
Country
Flag of USUS
Related business
Manufacturer
SpaceX/Seattle
Mission
Operational Commercial Communications
Bus & Motor
STARLINK V2M, Unknown motor
Mass
730 kg wet, ~700 kg dry
Launch date (UTC)
2023-07-20 (3 years ago)
Launch vehicle
FALCON 9
Launch site
Air Force Western Test Range (AFWTR)
Object type
Payload
Rocket body
Debris
Shape & HBR
Box + 2 Pan, 17.7 m
Radar Cross Section
33.884 m², Large (>1 m²)

Expand to show TLE details & history
Last TLE update: 2 days ago

TLE from 2 days ago
0 STARLINK-30214
1 57411U 23102H   26171.29545493  .00001324  00000-0  57629-4 0  9997
2 57411  43.0052  28.9947 0001305 270.4275  89.6427 15.27584782161888
Epoch: 2026-06-20T07:05Z
TLE epoch observation values (Epoch: 2026-06-20T07:05:27.305Z)
Latitude
-0.00005°
Longitude
14.11875°
Altitude
482.805 km
Speed
7.626 km/s
True Right ascension
01h 55m 58s
True Declination
0° 00' 00"
Sunlit
Object was in daylight at epoch
Visualization orbit readout
Latitude
Unknown
Longitude
Unknown
Altitude
Unknown
Speed
Unknown
Apparent Right ascension
Unknown
Apparent Declination
Unknown
Sunlit
N/A
Visualization observer readout
Local Sidereal Time
21:30:07
Azimuth
Unknown
Elevation
Unknown
Doppler factor
Unknown
Orbital elements
Apogee altitude
485.875 km
Perigee altitude
484.083 km
Semi-major axis
6,863.116 km
Eccentricity
0.00013
Inclination
43.0052°
RAAN
28.9947°
Arg. of periapsis
270.4275°
True anomaly
89.65765°
Mean anomaly
89.6427°
Eccentric anomaly
89.65018°
Mean motion
3.81734 °/min
Orbital period
94.31 mins
BSTAR
0.000057629
Loading maneuver chart data...
Computing Atmospheric mass density...
Loading historical data...
Loading historical data...
Loading historical data...
Loading historical data...
Loading historical data...
Loading historical data...
Loading historical data...

Documentation

Showing up to 5 results
|